Narrows Sub (686, 687, 800) Station Data

Red Flag Warning: No
Fire Weather Zone: 262
SDGE Region: Ramona
Lat/Lon: 33.137/-116.294

Observations

Time Wind Speed/Gust Temp(F) RH Fuel Moist Fuel Temp(F) Dewpt(F) Tmax(F) Tmin(F) Accum Precip 10-min Precip SL Press(mb)
4/26 2:40am 214 6 G 11 66° 39% - - 40° 69.9° 65.3° 0.0" 0.0" 1011.0
4/26 2:30am 214 7 G 14 66° 39% - - 40° 69.9° 65.3° 0.0" 0.0" 1011.0
4/26 2:20am 216 6 G 11 66° 39% - - 40° 69.9° 65.3° 0.0" 0.0" 1011.0
4/26 2:10am 218 6 G 10 66° 39% - - 40° 69.9° 65.7° 0.0" 0.0" 1011.0
4/26 2:00am 216 6 G 11 66° 39% - - 41° 69.9° 65.7° 0.0" 0.0" 1011.0
4/26 1:50am 212 5 G 10 66° 39% - - 41° 69.9° 66.1° 0.0" 0.0" 1011.0
4/26 1:40am 214 5 G 8 67° 39% - - 41° 69.9° 66.2° 0.0" 0.0" 1012.0
4/26 1:30am 215 5 G 10 67° 39% - - 41° 69.9° 66.6° 0.0" 0.0" 1012.0
4/26 1:20am 218 5 G 11 67° 39% - - 41° 69.9° 66.6° 0.0" 0.0" 1012.0
4/26 1:10am 217 5 G 10 67° 40% - - 42° 69.9° 66.6° 0.0" 0.0" 1012.0
4/26 1:00am 218 4 G 9 67° 40% - - 42° 69.9° 66.6° 0.0" 0.0" 1012.0
4/26 12:50am 217 4 G 8 67° 40% - - 42° 69.9° 66.7° 0.0" 0.0" 1012.0
4/26 12:40am 221 4 G 10 68° 38% - - 42° 69.9° 67.2° 0.0" 0.0" 1012.0
4/26 12:30am 201 5 G 8 69° 37% - - 42° 69.9° 68.6° 0.0" 0.0" 1012.0
4/26 12:20am 198 6 G 13 69° 37% - - 42° 69.8° 68.6° 0.0" 0.0" 1012.0
4/26 12:10am 201 5 G 11 69° 38% - - 43° 69.5° 68.6° 0.0" 0.0" 1012.0
4/26 12:00am 191 7 G 15 69° 39% - - 43° 75.6° 60.6° 0.0" 0.0" 1012.0
4/25 11:50pm 220 5 G 12 69° 40% - - 43° 75.6° 60.6° 0.0" 0.0" 1012.0
4/25 11:40pm 221 6 G 17 69° 41% - - 44° 75.6° 60.6° 0.0" 0.0" 1012.0
4/25 11:30pm 236 4 G 11 68° 42% - - 44° 75.6° 60.6° 0.0" 0.0" 1012.0
4/25 11:20pm 234 6 G 10 68° 42% - - 44° 75.6° 60.6° 0.0" 0.0" 1012.0
4/25 11:10pm 224 6 G 16 68° 42% - - 45° 75.6° 60.6° 0.0" 0.0" 1012.0
4/25 11:00pm 230 7 G 17 68° 43% - - 45° 75.6° 60.6° 0.0" 0.0" 1012.0
4/25 10:50pm 222 6 G 12 69° 43% - - 45° 75.6° 60.6° 0.0" 0.0" 1012.0
4/25 10:40pm 223 6 G 15 69° 43% - - 46° 75.6° 60.6° 0.0" 0.0" 1012.0
4/25 10:30pm 216 7 G 15 69° 44% - - 46° 75.6° 60.6° 0.0" 0.0" 1012.0
4/25 10:20pm 229 8 G 21 68° 45% - - 46° 75.6° 60.6° 0.0" 0.0" 1012.0
4/25 10:10pm 222 7 G 14 68° 46% - - 47° 75.6° 60.6° 0.0" 0.0" 1012.0
4/25 10:00pm 229 8 G 18 68° 46% - - 47° 75.6° 60.6° 0.0" 0.0" 1012.0
4/25 9:50pm 226 7 G 18 68° 46% - - 47° 75.6° 60.6° 0.0" 0.0" 1012.0
4/25 9:40pm 233 6 G 15 68° 46% - - 47° 75.6° 60.6° 0.0" 0.0" 1012.0
4/25 9:30pm 236 6 G 13 68° 47% - - 47° 75.6° 60.6° 0.0" 0.0" 1012.0
4/25 9:20pm 229 6 G 12 68° 47% - - 47° 75.6° 60.6° 0.0" 0.0" 1012.0
4/25 9:10pm 225 7 G 16 67° 48% - - 47° 75.6° 60.6° 0.0" 0.0" 1012.0
4/25 9:00pm 222 7 G 17 67° 48% - - 47° 75.6° 60.6° 0.0" 0.0" 1012.0
4/25 8:50pm 226 7 G 17 67° 49% - - 47° 75.6° 60.6° 0.0" 0.0" 1012.0
4/25 8:40pm 224 9 G 23 67° 49% - - 48° 75.6° 60.6° 0.0" 0.0" 1011.0
4/25 8:30pm 216 8 G 18 67° 49% - - 48° 75.6° 60.6° 0.0" 0.0" 1011.0
4/25 8:20pm 231 8 G 17 67° 50% - - 48° 75.6° 60.6° 0.0" 0.0" 1011.0
4/25 8:10pm 218 9 G 21 68° 49% - - 48° 75.6° 60.6° 0.0" 0.0" 1011.0
4/25 8:00pm 204 8 G 19 68° 49% - - 48° 75.6° 60.6° 0.0" 0.0" 1011.0
4/25 7:50pm 212 8 G 20 68° 50% - - 48° 75.6° 60.6° 0.0" 0.0" 1011.0
4/25 7:40pm 212 8 G 20 68° 49% - - 48° 75.6° 60.6° 0.0" 0.0" 1010.0
4/25 7:30pm 218 8 G 18 68° 49% - - 48° 75.6° 60.6° 0.0" 0.0" 1010.0
4/25 7:20pm 207 8 G 24 69° 48% - - 48° 75.6° 60.6° 0.0" 0.0" 1010.0
4/25 7:10pm 215 7 G 19 69° 48% - - 48° 75.6° 60.6° 0.0" 0.0" 1010.0
4/25 7:00pm 211 7 G 14 69° 47% - - 48° 75.6° 60.6° 0.0" 0.0" 1010.0
4/25 6:50pm 227 7 G 13 70° 47% - - 48° 75.6° 60.6° 0.0" 0.0" 1010.0
4/25 6:40pm 212 8 G 17 70° 47% - - 48° 75.6° 60.6° 0.0" 0.0" 1010.0
4/25 6:30pm 215 8 G 20 70° 46% - - 48° 75.6° 60.6° 0.0" 0.0" 1010.0
4/25 6:20pm 220 9 G 20 70° 45% - - 48° 75.6° 60.6° 0.0" 0.0" 1010.0
4/25 6:10pm 214 9 G 20 70° 45% - - 48° 75.6° 60.6° 0.0" 0.0" 1010.0
4/25 6:00pm 220 9 G 20 71° 44% - - 48° 75.6° 60.6° 0.0" 0.0" 1010.0
4/25 5:50pm 226 7 G 18 71° 43% - - 48° 75.6° 60.6° 0.0" 0.0" 1010.0
4/25 5:40pm 228 8 G 18 71° 43% - - 48° 75.6° 60.6° 0.0" 0.0" 1010.0
4/25 5:30pm 225 9 G 18 72° 43% - - 48° 75.6° 60.6° 0.0" 0.0" 1010.0
4/25 5:20pm 229 8 G 18 72° 43% - - 48° 75.6° 60.6° 0.0" 0.0" 1010.0
4/25 5:10pm 221 8 G 16 72° 42% - - 48° 75.6° 60.6° 0.0" 0.0" 1010.0
4/25 5:00pm 237 8 G 20 73° 41% - - 47° 75.6° 60.6° 0.0" 0.0" 1010.0
4/25 4:50pm 234 8 G 21 72° 41% - - 47° 75.6° 60.6° 0.0" 0.0" 1010.0
4/25 4:40pm 237 9 G 18 73° 40% - - 47° 75.6° 60.6° 0.0" 0.0" 1010.0
4/25 4:30pm 229 8 G 17 73° 40% - - 47° 75.6° 60.6° 0.0" 0.0" 1010.0
4/25 4:20pm 232 10 G 23 73° 40% - - 47° 75.6° 60.6° 0.0" 0.0" 1010.0
4/25 4:10pm 248 10 G 26 73° 39% - - 47° 75.6° 60.6° 0.0" 0.0" 1010.0
4/25 4:00pm 251 10 G 20 73° 40% - - 47° 75.6° 60.6° 0.0" 0.0" 1010.0
4/25 3:50pm 250 11 G 25 73° 39% - - 47° 75.6° 60.6° 0.0" 0.0" 1010.0
4/25 3:40pm 244 9 G 26 73° 39% - - 47° 75.6° 60.6° 0.0" 0.0" 1010.0
4/25 3:30pm 236 8 G 18 74° 38% - - 47° 75.6° 60.6° 0.0" 0.0" 1010.0
4/25 3:20pm 227 8 G 18 73° 39% - - 47° 75.6° 60.6° 0.0" 0.0" 1010.0
4/25 3:10pm 228 9 G 16 73° 38% - - 46° 75.6° 60.6° 0.0" 0.0" 1010.0
4/25 3:00pm 236 8 G 17 74° 36% - - 46° 75.6° 60.6° 0.0" 0.0" 1010.0
4/25 2:50pm 233 9 G 22 74° 36% - - 46° 75.6° 60.6° 0.0" 0.0" 1010.0
4/25 2:40pm 231 9 G 22 74° 36% - - 45° 75.6° 60.6° 0.0" 0.0" 1010.0
4/25 2:30pm 240 9 G 19 75° 35% - - 45° 75.6° 60.6° 0.0" 0.0" 1010.0
4/25 2:20pm 236 9 G 20 75° 35% - - 45° 75.6° 60.6° 0.0" 0.0" 1010.0
4/25 2:10pm 236 9 G 18 74° 35% - - 45° 75.6° 60.6° 0.0" 0.0" 1011.0
4/25 2:00pm 233 9 G 20 74° 35% - - 45° 75.2° 60.6° 0.0" 0.0" 1011.0
4/25 1:50pm 241 9 G 20 74° 35% - - 45° 75.2° 60.6° 0.0" 0.0" 1011.0
4/25 1:40pm 246 10 G 20 74° 35% - - 44° 75.2° 60.6° 0.0" 0.0" 1011.0
4/25 1:30pm 246 10 G 21 74° 35% - - 44° 75.2° 60.6° 0.0" 0.0" 1011.0
4/25 1:20pm 252 12 G 21 74° 34% - - 44° 75.2° 60.6° 0.0" 0.0" 1011.0
4/25 1:10pm 245 9 G 21 74° 33% - - 44° 75.2° 60.6° 0.0" 0.0" 1011.0
4/25 1:00pm 254 12 G 25 74° 33% - - 43° 74.6° 60.6° 0.0" 0.0" 1011.0
4/25 12:50pm 252 11 G 21 73° 34% - - 43° 74.1° 60.6° 0.0" 0.0" 1011.0
4/25 12:40pm 251 11 G 27 73° 33% - - 42° 73.8° 60.6° 0.0" 0.0" 1011.0
4/25 12:30pm 246 10 G 22 73° 34% - - 42° 73.3° 60.6° 0.0" 0.0" 1011.0
4/25 12:20pm 250 11 G 24 72° 34% - - 43° 72.9° 60.6° 0.0" 0.0" 1011.0
4/25 12:10pm 246 11 G 24 71° 35% - - 43° 72.4° 60.6° 0.0" 0.0" 1010.0
4/25 12:00pm 257 13 G 24 71° 35% - - 42° 71.8° 60.6° 0.0" 0.0" 1011.0
4/25 11:50am 261 12 G 27 71° 36% - - 42° 71.7° 60.6° 0.0" 0.0" 1011.0
4/25 11:40am 252 12 G 22 71° 36% - - 42° 71.4° 60.6° 0.0" 0.0" 1011.0
4/25 11:30am 261 13 G 26 71° 36% - - 42° 71.3° 60.6° 0.0" 0.0" 1011.0
4/25 11:20am 264 13 G 26 70° 36% - - 43° 71.1° 60.6° 0.0" 0.0" 1011.0
4/25 11:10am 257 14 G 28 70° 36% - - 42° 70.9° 60.6° 0.0" 0.0" 1011.0
4/25 11:00am 262 15 G 26 70° 37% - - 42° 70.4° 60.6° 0.0" 0.0" 1011.0
4/25 10:50am 264 14 G 27 69° 38% - - 43° 70.3° 60.6° 0.0" 0.0" 1011.0
4/25 10:40am 264 12 G 23 70° 38% - - 43° 70.3° 60.6° 0.0" 0.0" 1011.0
4/25 10:30am 250 10 G 24 70° 37% - - 42° 70.3° 60.6° 0.0" 0.0" 1011.0
4/25 10:20am 241 8 G 19 69° 38% - - 43° 70.1° 60.6° 0.0" 0.0" 1011.0
4/25 10:10am 228 10 G 27 68° 39% - - 43° 69.1° 60.6° 0.0" 0.0" 1011.0
4/25 10:00am 242 11 G 28 67° 42% - - 43° 67.8° 60.6° 0.0" 0.0" 1011.0
4/25 9:50am 260 15 G 31 66° 42% - - 43° 67° 60.6° 0.0" 0.0" 1011.0
4/25 9:40am 259 16 G 29 66° 43% - - 43° 66.7° 60.6° 0.0" 0.0" 1011.0
4/25 9:30am 261 19 G 32 65° 44% - - 43° 66.2° 60.6° 0.0" 0.0" 1010.0
4/25 9:20am 259 16 G 30 65° 45% - - 43° 65.7° 60.6° 0.0" 0.0" 1011.0
4/25 9:10am 254 12 G 24 65° 45% - - 43° 65.7° 60.6° 0.0" 0.0" 1011.0
4/25 9:00am 259 15 G 33 65° 46% - - 43° 65.3° 60.6° 0.0" 0.0" 1010.0
4/25 8:50am 260 19 G 33 64° 46% - - 43° 64.8° 60.6° 0.0" 0.0" 1010.0
4/25 8:40am 261 19 G 35 64° 48% - - 44° 64.5° 60.6° 0.0" 0.0" 1010.0
4/25 8:30am 259 19 G 39 64° 48% - - 44° 64.5° 60.6° 0.0" 0.0" 1010.0
4/25 8:20am 260 17 G 39 63° 48% - - 43° 64.5° 60.6° 0.0" 0.0" 1010.0
4/25 8:10am 255 15 G 31 64° 48% - - 44° 64.5° 60.6° 0.0" 0.0" 1010.0
4/25 8:00am 257 10 G 25 64° 48% - - 44° 64.5° 60.6° 0.0" 0.0" 1010.0
4/25 7:50am 241 9 G 20 63° 50% - - 44° 64.1° 60.6° 0.0" 0.0" 1010.0
4/25 7:40am 235 10 G 23 63° 51% - - 44° 63.5° 60.6° 0.0" 0.0" 1010.0
4/25 7:30am 228 10 G 24 63° 51% - - 44° 63.2° 60.6° 0.0" 0.0" 1010.0
4/25 7:20am 235 10 G 28 62° 52% - - 45° 63.2° 60.6° 0.0" 0.0" 1010.0
4/25 7:10am 233 10 G 24 62° 52% - - 44° 63.2° 60.6° 0.0" 0.0" 1010.0
4/25 7:00am 237 9 G 20 62° 53% - - 45° 63.2° 60.6° 0.0" 0.0" 1010.0
4/25 6:50am 247 10 G 26 61° 54% - - 45° 63.2° 60.6° 0.0" 0.0" 1009.0
4/25 6:40am 251 12 G 26 61° 54% - - 45° 63.2° 60.6° 0.0" 0.0" 1009.0
4/25 6:30am 237 10 G 26 61° 55% - - 45° 63.2° 60.6° 0.0" 0.0" 1009.0
4/25 6:20am 245 10 G 28 61° 55% - - 45° 63.2° 60.6° 0.0" 0.0" 1009.0
4/25 6:10am 246 11 G 25 61° 55% - - 45° 63.2° 60.6° 0.0" 0.0" 1009.0
4/25 6:00am 234 11 G 22 61° 55% - - 45° 63.2° 60.8° 0.0" 0.0" 1009.0
4/25 5:50am 232 10 G 22 61° 55% - - 45° 63.2° 60.8° 0.0" 0.0" 1008.0
4/25 5:40am 233 11 G 22 61° 55% - - 45° 63.2° 60.8° 0.0" 0.0" 1008.0
4/25 5:30am 224 11 G 22 61° 55% - - 45° 63.2° 60.8° 0.0" 0.0" 1008.0
4/25 5:20am 228 10 G 23 61° 56% - - 45° 63.2° 60.8° 0.0" 0.0" 1009.0
4/25 5:10am 229 10 G 23 61° 56% - - 46° 63.2° 60.8° 0.0" 0.0" 1009.0
4/25 5:00am 230 11 G 26 61° 57% - - 46° 63.2° 60.8° 0.0" 0.0" 1008.0
4/25 4:50am 225 12 G 27 61° 57% - - 46° 63.2° 60.9° 0.0" 0.0" 1008.0
4/25 4:40am 222 12 G 22 61° 56% - - 46° 63.2° 60.9° 0.0" 0.0" 1008.0
4/25 4:30am 219 11 G 25 61° 56% - - 46° 63.2° 60.9° 0.0" 0.0" 1008.0
4/25 4:20am 225 12 G 26 61° 56% - - 46° 63.2° 60.9° 0.0" 0.0" 1008.0
4/25 4:10am 220 11 G 28 61° 56% - - 46° 63.2° 60.9° 0.0" 0.0" 1008.0
4/25 4:00am 224 11 G 28 61° 56% - - 46° 63.2° 60.9° 0.0" 0.0" 1008.0
4/25 3:50am 223 11 G 26 61° 56% - - 46° 63.2° 60.9° 0.0" 0.0" 1008.0
4/25 3:40am 217 11 G 22 61° 56% - - 46° 63.2° 60.9° 0.0" 0.0" 1008.0
4/25 3:30am 215 12 G 24 61° 56% - - 46° 63.2° 60.9° 0.0" 0.0" 1008.0
4/25 3:20am 230 11 G 29 62° 56% - - 46° 63.2° 60.9° 0.0" 0.0" 1008.0
4/25 3:10am 231 14 G 27 62° 55% - - 45° 63.2° 60.9° 0.0" 0.0" 1007.0
4/25 3:00am 226 15 G 33 62° 55% - - 45° 63.2° 60.9° 0.0" 0.0" 1007.0
4/25 2:50am 224 13 G 26 62° 55% - - 46° 63.2° 60.9° 0.0" 0.0" 1008.0
4/25 2:40am 226 13 G 36 62° 55% - - 46° 63.2° 60.9° 0.0" 0.0" 1008.0
4/25 2:30am 221 15 G 31 62° 55% - - 46° 63.2° 60.9° 0.0" 0.0" 1007.0
4/25 2:20am 227 15 G 32 62° 56% - - 46° 63.2° 60.9° 0.0" 0.0" 1007.0
4/25 2:10am 228 14 G 34 62° 56% - - 46° 63.2° 60.9° 0.0" 0.0" 1007.0
4/25 2:00am 232 13 G 29 62° 55% - - 46° 63.2° 60.9° 0.0" 0.0" 1007.0
4/25 1:50am 230 12 G 29 62° 55% - - 46° 63.2° 60.9° 0.0" 0.0" 1007.0
4/25 1:40am 225 13 G 29 62° 56% - - 46° 63.2° 60.9° 0.0" 0.0" 1007.0
4/25 1:30am 224 13 G 27 62° 55% - - 46° 63.2° 60.9° 0.0" 0.0" 1007.0
4/25 1:20am 238 14 G 28 62° 55% - - 45° 63.2° 60.9° 0.0" 0.0" 1007.0
4/25 1:10am 230 12 G 26 61° 55% - - 45° 63.2° 60.9° 0.0" 0.0" 1008.0
4/25 1:00am 242 12 G 25 61° 56% - - 45° 63.2° 60.9° 0.0" 0.0" 1008.0
4/25 12:50am 232 13 G 28 61° 57% - - 46° 63.2° 60.9° 0.0" 0.0" 1007.0
4/25 12:40am 235 13 G 35 61° 57% - - 46° 63.2° 61.1° 0.0" 0.0" 1007.0
4/25 12:30am 245 14 G 36 62° 56% - - 46° 63.2° 61.3° 0.0" 0.0" 1007.0
4/25 12:20am 239 11 G 29 62° 55% - - 46° 63.2° 61.6° 0.0" 0.0" 1007.0
4/25 12:10am 230 16 G 39 63° 54% - - 46° 63.2° 62.1° 0.0" 0.0" 1007.0
4/25 12:00am 232 19 G 39 63° 54% - - 46° 80.4° 62.2° 0.0" 0.0" 1007.0
4/24 11:50pm 228 16 G 35 63° 54% - - 46° 80.4° 62.2° 0.0" 0.0" 1008.0
4/24 11:40pm 236 13 G 27 63° 53% - - 46° 80.4° 62.3° 0.0" 0.0" 1009.0
4/24 11:30pm 238 12 G 28 63° 52% - - 45° 80.4° 62.6° 0.0" 0.0" 1009.0
4/24 11:20pm 252 10 G 28 64° 50% - - 45° 80.4° 63.1° 0.0" 0.0" 1009.0
4/24 11:10pm 256 12 G 32 64° 49% - - 44° 80.4° 63.7° 0.0" 0.0" 1008.0
4/24 11:00pm 252 14 G 32 64° 48% - - 44° 80.4° 63.8° 0.0" 0.0" 1008.0
4/24 10:50pm 246 11 G 31 64° 48% - - 44° 80.4° 63.8° 0.0" 0.0" 1008.0
4/24 10:40pm 244 14 G 30 64° 48% - - 44° 80.4° 63.8° 0.0" 0.0" 1008.0
4/24 10:30pm 233 12 G 30 65° 48% - - 44° 80.4° 64° 0.0" 0.0" 1007.0
4/24 10:20pm 239 14 G 34 65° 49% - - 45° 80.4° 64.1° 0.0" 0.0" 1007.0
4/24 10:10pm 235 12 G 28 65° 49% - - 45° 80.4° 64.1° 0.0" 0.0" 1008.0
4/24 10:00pm 236 14 G 32 65° 49% - - 45° 80.4° 64.3° 0.0" 0.0" 1008.0
4/24 9:50pm 245 14 G 29 65° 48% - - 45° 80.4° 64.8° 0.0" 0.0" 1008.0
4/24 9:40pm 238 13 G 35 65° 48% - - 45° 80.4° 64.9° 0.0" 0.0" 1008.0
4/24 9:30pm 236 13 G 33 65° 48% - - 45° 80.4° 64.9° 0.0" 0.0" 1008.0
4/24 9:20pm 233 15 G 39 65° 47% - - 45° 80.4° 65.1° 0.0" 0.0" 1007.0
4/24 9:10pm 233 14 G 35 66° 47% - - 45° 80.4° 65.3° 0.0" 0.0" 1007.0
4/24 9:00pm 241 13 G 34 66° 46% - - 45° 80.4° 65.5° 0.0" 0.0" 1007.0
4/24 8:50pm 230 14 G 32 66° 47% - - 45° 80.4° 65.5° 0.0" 0.0" 1007.0
4/24 8:40pm 241 13 G 37 66° 47% - - 45° 80.4° 65.6° 0.0" 0.0" 1007.0
4/24 8:30pm 237 14 G 38 66° 48% - - 46° 80.4° 65.6° 0.0" 0.0" 1007.0
4/24 8:20pm 239 15 G 32 66° 48% - - 46° 80.4° 65.7° 0.0" 0.0" 1007.0
4/24 8:10pm 236 15 G 33 66° 47% - - 46° 80.4° 66° 0.0" 0.0" 1007.0
4/24 8:00pm 241 14 G 41 66° 48% - - 46° 80.4° 66° 0.0" 0.0" 1007.0
4/24 7:50pm 235 14 G 29 67° 47% - - 46° 80.4° 66.1° 0.0" 0.0" 1007.0
4/24 7:40pm 239 13 G 36 67° 47% - - 46° 80.4° 66.4° 0.0" 0.0" 1007.0
4/24 7:30pm 261 13 G 31 67° 47% - - 46° 80.4° 66.6° 0.0" 0.0" 1007.0
4/24 7:20pm 284 13 G 35 67° 46% - - 46° 80.4° 67° 0.0" 0.0" 1007.0
4/24 7:10pm 285 13 G 36 68° 46% - - 46° 80.4° 67.3° 0.0" 0.0" 1008.0
4/24 7:00pm 284 13 G 33 69° 44% - - 46° 80.4° 67.9° 0.0" 0.0" 1008.0
4/24 6:50pm 277 14 G 32 69° 43% - - 46° 80.4° 67.9° 0.0" 0.0" 1007.0
4/24 6:40pm 249 14 G 28 70° 42% - - 46° 80.4° 67.9° 0.0" 0.0" 1007.0
4/24 6:30pm 242 14 G 35 71° 41% - - 46° 80.4° 67.9° 0.0" 0.0" 1007.0
4/24 6:20pm 238 13 G 33 71° 41% - - 46° 80.4° 67.9° 0.0" 0.0" 1007.0
4/24 6:10pm 252 15 G 32 71° 41% - - 47° 80.4° 67.9° 0.0" 0.0" 1007.0
4/24 6:00pm 249 15 G 35 72° 40% - - 47° 80.4° 67.9° 0.0" 0.0" 1007.0